Location: Carnoy
(49.9849°N, 2.7558°E)
Time: 09:18:11
(UTC+00:00)

YAOGAN 6 - Pass Details

Date: 24 January 2020
Orbit: 465 x 506 km, 97.0° (Epoch: 17 February)

Event Time Altitude Azimuth Distance (km) Brightness Sun altitude
Rises 18:17:17 0° 187° (S) 2,589 6.5 -17.2°
Reaches altitude 10° 18:19:30 10° 197° (SSW) 1,706 5.6 -17.5°
Maximum altitude 18:22:53 34° 263° (W) 841 4.4 -18.0°
Drops below altitude 10° 18:26:15 10° 330° (NNW) 1,703 5.6 -18.6°
Sets 18:28:28 0° 340° (NNW) 2,583 6.4 -18.9°
